Flag for Portugal Weather past 2 weeks in Braga, Portugal

Now
78 °F

Warm.


Feels Like: 80 °F
Forecast: 61 / 83 °F
Wind: 2 mph from Northwest

Location: Porto / Pedras Rubras

Current Time: Oct 21, 2014 at 4:56:53 PM

Latest Report: Oct 21, 2014 at 4:00 PM


Visibility: N/A

Pressure: 30.28 "Hg

Humidity: 54%

Dew point: 60 °F

Location of BragaLocation

Historic Weather in Braga — Graph

°F

Braga temperature yesterday

Maximum temperature yesterday: 85 °F (at 3:00 PM)
Minimum temperature yesterday: 67 °F (at 8:00 AM)
Average temperature yesterday: 73 °F

Past Weeks' High & Low Weather Summary

 TemperatureHumidityPressure
High85 °F (Oct 20, 3:00 PM)94% (Oct 8, 5:00 AM)30.30 "Hg (Oct 8, 5:00 AM)
Low52 °F (Oct 14, 7:00 AM)41% (Oct 21, 2:00 PM)29.57 "Hg (Oct 12, 6:00 AM)
Average65 °F80%29.89 "Hg
* Reported Oct 6 3:00 PM — Oct 21 3:00 PM, Braga, Weather by CustomWeather, © 2014

Note: Actual official high and low records may vary slightly from our data, if they occured in-between our weather recording intervals... More about our weather records

Advertising

Braga weather history for previous 24 hours

 ConditionsComfort  
Time TempWeatherWind HumidityBarometerVisibility
3:00 PM
Oct 21
81 °FWarm.2 mph54%30.28 "HgN/A
2:00 PM83 °FWarm.2 mph41%30.28 "HgN/A
1:00 PM81 °FWarm.2 mph49%30.30 "HgN/A
12:00 PM77 °FWarm.2 mph54%30.29 "HgN/A
11:00 AM73 °FMild.5 mph62%30.29 "HgN/A
10:00 AM69 °FMild.5 mph64%30.28 "HgN/A
9:00 AM66 °FMild.5 mph71%30.25 "HgN/A
8:00 AM65 °FMild.6 mph75%30.22 "HgN/A
7:00 AM65 °FMild.5 mph74%30.21 "HgN/A
6:00 AM65 °FMild.5 mph77%30.19 "HgN/A
5:00 AM67 °FMild.3 mph73%30.19 "HgN/A
4:00 AM67 °FMild.5 mph75%30.18 "HgN/A
3:00 AM67 °FMild.6 mph77%30.18 "HgN/A
2:00 AM67 °FMild.3 mph80%30.19 "HgN/A
1:00 AM67 °FMild.2 mph77%30.18 "HgN/A
12:00 AM67 °FMild.1 mph80%30.18 "HgN/A
11:00 PM
Oct 20
68 °FMild.2 mph80%30.18 "HgN/A
10:00 PM70 °FMild.2 mph78%30.16 "HgN/A
9:00 PM72 °FMild.3 mph77%30.14 "HgN/A
8:00 PM76 °FMild.1 mph67%30.13 "HgN/A
7:00 PM73 °FMild.2 mph71%30.11 "HgN/A
6:00 PM77 °FWarm.2 mph62%30.10 "HgN/A
5:00 PM79 °FWarm.2 mph60%30.10 "HgN/A
4:00 PM78 °FWarm.3 mph55%30.10 "HgN/A
Weather by CustomWeather, © 2014

See weather overviewHow to use our weather pages